Temp_Advection
nan nan nan nan nan nan nan nan nan nan nan nan nan nan nan nan nan nan nan nan nan nan nan nan nan nan nan nan nan nan nan nan nan nan nan nan nan nan nan nan nan nan nan nan nan nan nan nan nan nan nan nan nan nan nan nan nan nan nan nan nan nan nan nan nan nan nan nan nan
nan 0 0 0 0 0 0 0 0 0 0 0 0 0 0 0 0 0 0 0 0 0 0 0 0 0 0 -0 -0 -0 -0 -0 -0 -0 -0 -0 0 0 0 -0 -0 -0 -0 -0 -0 -0 -0 -0 0 0 -0 -0 -0 -0 -1 -1 -1 -1 -1 -1 -1 -0 0 0 0 0 1 1 nan
nan 0 0 0 0 0 0 0 0 0 0 0 0 0 0 0 -0 -0 0 0 0 0 0 0 0 0 0 0 -0 -0 -0 -0 -0 -0 -0 -0 0 0 0 -0 -0 -0 -1 -1 -1 -0 -0 -0 -0 -0 -0 -1 -1 -1 -1 -1 -1 -1 -1 -1 -0 0 0 0 0 0 1 1 nan
nan 0 0 0 0 0 0 0 0 0 0 0 0 0 0 0 -0 -0 -0 -0 0 0 0 0 0 0 0 0 -0 -0 -0 -0 -0 -0 -0 -0 -0 -0 -0 -0 -0 -0 -0 -0 -1 -0 -0 -0 -0 -1 -1 -1 -1 -1 -1 -1 -0 -1 -1 -1 -0 0 0 0 0 1 1 1 nan
nan 0 0 0 0 0 0 0 0 0 0 0 0 0 0 0 0 0 0 0 0 0 -0 -0 0 0 0 0 -0 -0 -0 -0 -0 -0 -0 -0 0 -0 -0 -0 -0 -0 -0 -0 -0 -0 -0 -0 -0 -0 -1 -1 -1 -1 -1 -1 -0 -0 -0 -0 0 0 0 0 1 1 1 1 nan
nan 0 0 0 0 0 0 0 0 0 0 0 0 0 0 0 -0 -0 0 0 0 0 -0 -0 0 0 0 -0 -0 -0 -0 -0 -0 -0 -0 -0 -0 -0 -0 -0 -0 -0 -0 -0 0 0 0 -0 -0 -0 -0 -0 -0 -0 -0 0 0 0 0 0 0 1 1 1 1 1 1 1 nan
nan 0 0 0 0 0 0 0 0 0 0 0 0 0 0 -0 -0 -0 0 0 0 0 0 -0 -0 -0 -0 -0 -0 -0 -0 -0 -0 -0 -0 -0 -0 -0 -0 -0 -0 -0 -0 -0 0 0 0 0 0 -0 -0 0 0 0 1 1 0 0 0 0 1 1 1 1 0 0 1 1 nan
nan 0 0 0 0 0 0 0 0 0 0 0 0 0 -0 -0 -0 -0 0 0 0 0 0 -0 -0 -0 -0 -0 -0 -0 -0 -0 -0 -0 -0 -0 -0 -0 -0 -0 -0 -0 -0 0 0 0 0 0 0 0 0 0 1 1 1 1 1 0 0 1 1 1 1 0 0 0 0 0 nan
nan 0 0 0 0 0 0 0 0 0 0 0 0 0 0 -0 -0 0 0 0 0 0 0 -0 -0 -0 -0 -0 -0 -0 -0 -0 -0 -0 -0 -0 -0 -0 -0 0 0 0 -0 0 0 0 0 0 0 0 1 1 1 1 1 1 1 1 1 1 1 1 0 -0 -0 -0 -0 -0 nan
nan 0 0 0 0 0 0 0 0 0 0 0 0 0 0 0 0 0 0 0 0 0 0 -0 -0 -0 -0 -0 -0 -0 -0 -0 -0 -0 -0 -0 -0 -0 0 0 0 0 0 0 0 1 1 1 0 0 1 1 1 1 1 1 1 1 1 1 1 1 -0 -0 -0 -0 -0 -0 nan
nan 0 0 0 0 0 0 0 0 -0 0 0 0 0 0 0 0 0 0 0 0 0 0 -0 -0 -0 -0 -0 -0 -0 -0 -0 -0 -0 -0 -0 -0 -0 0 0 0 0 0 1 1 1 1 1 1 1 1 1 1 1 1 1 1 1 1 1 1 0 -0 -0 -0 -0 -0 -0 nan
nan 0 0 0 0 0 0 0 0 0 0 0 0 0 0 0 0 0 0 -0 0 -0 -0 -0 -0 -0 -0 -0 -0 -0 -0 -0 -0 -0 -0 -0 -0 -0 0 0 0 1 1 1 1 1 1 1 1 1 1 1 1 1 1 1 1 1 1 1 0 -0 -0 -0 0 0 0 0 nan
nan 0 0 0 0 0 0 0 0 0 0 0 0 0 0 0 0 0 0 0 -0 -0 -0 -0 -0 -0 -0 -0 -0 -0 -0 -0 -0 -0 -0 -0 -0 0 0 0 0 0 0 0 1 1 1 1 1 1 1 1 1 1 1 1 1 1 1 1 -0 -1 -0 0 0 0 0 0 nan
nan 0 0 0 0 0 0 0 0 0 0 0 0 0 0 0 0 -0 -0 -0 -0 -0 -0 -0 -0 -0 -0 -0 -0 0 0 -0 -0 -0 -0 -0 -0 0 0 0 0 0 0 0 0 1 1 1 1 1 1 1 1 1 1 1 1 1 1 0 -0 -1 0 1 1 0 0 1 nan
nan 0 0 0 0 0 0 0 0 0 0 0 0 0 0 0 -0 -0 0 -0 -0 -0 -0 -0 -0 -0 -0 -0 -0 0 0 0 -0 -0 -0 -0 0 0 0 0 0 0 0 0 0 0 0 0 0 1 1 1 1 1 1 1 1 1 1 0 -0 -0 0 1 1 1 1 1 nan
nan 0 0 0 0 0 0 0 0 0 0 0 0 0 0 0 -0 0 0 -0 -0 -0 -0 -0 -0 -0 -0 0 0 0 0 0 0 0 -0 0 0 0 0 0 0 0 0 0 0 0 0 0 0 1 1 1 1 1 1 1 1 1 1 0 -0 -0 0 1 1 1 2 2 nan
nan 0 0 0 0 0 0 0 0 0 0 1 1 0 0 0 0 0 0 -0 -0 -0 -0 -0 -0 -0 0 0 0 0 0 0 0 0 0 0 0 0 0 0 0 0 0 0 0 0 0 0 0 1 1 0 0 0 0 1 1 1 1 0 0 0 0 1 1 1 1 2 nan
nan 0 0 0 0 0 0 0 0 0 0 1 1 0 0 0 0 0 -0 -0 0 0 -0 -0 -0 0 0 0 0 0 0 0 0 0 0 0 0 0 0 0 0 0 0 0 0 0 0 0 0 1 1 1 0 0 0 1 1 1 1 1 0 0 1 1 1 1 1 1 nan
nan 0 0 0 0 0 0 0 0 0 0 0 0 1 0 0 0 0 0 0 0 0 -0 -0 -0 0 0 0 0 0 0 0 0 0 0 0 0 0 0 0 0 0 0 0 0 0 0 0 1 1 1 1 1 0 0 1 1 1 1 1 1 1 1 1 1 1 1 1 nan
nan 0 0 0 0 0 0 0 0 0 0 0 0 0 1 0 0 0 0 -0 -0 0 0 0 0 0 0 0 0 0 0 0 0 0 0 0 0 0 0 0 0 0 0 0 0 0 0 1 1 1 1 1 1 1 1 1 1 1 1 1 1 1 1 1 1 1 1 1 nan
nan 0 0 0 0 0 0 0 0 0 0 0 0 0 0 0 0 0 0 0 0 0 0 0 -0 -0 0 0 0 0 0 0 0 0 0 0 0 0 0 0 0 0 0 0 0 0 1 1 1 1 1 1 1 1 1 1 1 1 1 1 1 1 1 1 1 1 1 0 nan
nan 0 0 0 0 0 0 0 0 0 0 0 0 0 0 0 0 0 0 0 0 0 0 -0 -0 -0 -0 0 0 0 0 0 0 0 0 0 0 0 0 0 0 0 0 0 0 0 0 1 1 1 0 1 1 0 0 1 1 1 1 1 1 1 1 1 1 0 0 0 nan
nan 0 0 0 0 0 0 0 0 0 0 0 0 0 0 0 0 1 1 1 0 0 -0 -0 -0 -0 -0 0 0 0 0 0 0 0 0 0 0 0 0 0 0 0 0 0 0 0 0 0 0 0 0 0 0 0 0 1 1 1 1 1 1 1 1 1 0 0 0 0 nan
nan 0 0 0 0 0 0 0 0 0 0 0 0 0 0 0 0 1 1 1 0 0 0 -0 -0 -0 -0 -0 0 0 0 0 0 0 0 0 0 0 0 0 0 0 -0 -0 0 0 0 0 0 0 0 0 0 0 0 0 1 1 1 1 1 1 1 1 1 0 1 0 nan
nan 0 0 0 0 0 0 0 0 0 0 0 0 0 0 0 0 0 0 1 0 0 0 -0 -0 -0 -0 0 0 0 0 0 0 0 0 0 0 0 0 0 0 -0 -0 -0 -0 0 0 0 0 0 0 0 0 0 0 0 0 0 0 0 1 1 1 1 1 1 1 1 nan
nan 0 0 0 0 0 0 0 0 0 0 0 0 0 0 0 0 0 0 1 0 0 0 0 -0 -0 0 0 0 0 0 0 0 0 0 0 0 0 0 0 -0 -0 -0 -0 0 0 0 0 0 0 0 0 0 0 0 0 0 0 0 0 0 1 1 1 1 0 1 1 nan
nan 0 0 0 0 0 0 0 0 0 0 0 0 0 0 0 0 0 0 0 0 0 0 0 0 0 0 0 0 0 0 0 0 0 0 0 0 0 0 0 0 0 0 0 0 0 0 0 0 0 0 0 0 0 0 0 0 0 0 0 0 0 0 1 1 1 1 1 nan
nan 0 0 0 0 0 0 0 0 0 0 0 0 0 0 0 0 0 0 0 0 0 0 0 0 0 0 0 0 0 0 0 0 0 0 0 0 0 0 0 0 0 0 0 0 0 0 0 0 0 0 0 0 0 0 0 0 0 0 0 0 0 1 1 1 1 1 1 nan
nan 1 0 0 0 0 0 0 0 0 0 0 0 0 0 0 0 0 0 0 0 0 0 0 0 0 0 0 -0 -0 0 0 0 0 0 0 0 0 0 0 0 0 0 0 0 0 0 0 0 0 0 0 0 0 0 0 0 0 0 0 1 1 1 1 1 1 1 0 nan
nan 1 0 0 0 0 0 0 1 1 1 0 0 0 0 0 0 0 0 0 0 0 0 0 0 0 0 -0 -0 0 0 0 -0 0 0 0 0 0 0 0 0 0 0 0 0 0 0 0 0 0 0 0 0 0 0 0 0 0 1 1 1 1 1 1 1 1 0 0 nan
nan 1 1 0 0 0 0 1 1 1 0 0 0 0 0 0 0 0 0 0 0 0 0 0 0 0 -0 -0 0 0 0 0 0 0 0 0 0 0 0 0 0 0 0 0 1 1 0 0 0 0 0 0 0 0 0 0 0 0 1 1 1 1 1 1 0 0 0 0 nan
nan 1 1 0 0 1 1 1 1 0 0 0 0 0 0 0 0 0 0 0 0 0 0 0 0 0 -0 0 0 0 0 0 0 0 0 0 0 0 0 0 0 0 0 0 1 1 0 -0 -0 0 0 0 0 0 0 0 0 0 1 1 1 1 0 0 0 0 0 -0 nan
nan 1 1 1 1 1 1 1 0 0 0 0 0 0 0 0 0 0 0 0 0 0 0 0 0 0 0 0 0 0 0 0 0 0 0 0 0 0 0 0 0 0 0 0 1 1 0 -0 -0 0 0 0 0 0 0 0 0 0 0 0 0 0 0 -0 -0 -0 -0 -0 nan
nan 1 1 1 1 1 1 0 0 0 0 0 0 0 0 0 0 0 0 0 0 0 0 0 0 0 0 0 -0 -0 0 0 0 0 0 0 0 0 0 0 0 0 0 0 1 1 0 -0 -1 0 0 0 0 0 0 0 0 0 0 0 0 -0 -0 -0 -0 -0 -0 -0 nan
nan 1 1 1 1 1 1 0 0 0 0 0 0 0 0 0 0 0 0 0 0 0 0 0 0 0 0 -0 -0 -0 0 0 0 0 0 0 0 0 0 0 0 0 0 0 1 1 0 -1 -1 0 0 0 0 0 0 0 0 -0 -0 -0 -0 -0 -0 -0 -0 -0 -0 -0 nan
nan 1 1 1 1 1 1 0 0 0 0 0 0 0 0 0 0 0 0 0 0 0 0 0 0 0 -0 -0 -0 0 0 0 0 0 0 0 0 0 0 0 0 0 0 0 0 1 0 -1 -1 0 0 0 0 0 0 -0 -0 -0 -0 -0 -0 0 0 0 0 -0 0 0 nan
nan 2 2 1 1 1 1 1 0 0 -0 0 0 0 0 1 1 1 0 0 0 0 0 0 0 -0 -0 -0 0 0 0 0 0 0 0 0 0 0 0 0 0 0 0 0 0 1 0 -1 -0 0 0 0 0 0 -0 -0 -0 -0 -0 -0 -0 -0 -0 0 0 0 0 1 nan
nan 2 2 1 1 1 1 0 0 -0 0 0 1 1 1 1 1 1 0 0 0 0 0 0 0 0 0 0 1 1 0 0 0 0 0 0 0 1 0 0 0 0 -0 0 1 1 0 -0 -0 0 0 0 0 0 -0 -0 -0 -0 -0 -0 -0 -0 -0 0 0 0 1 1 nan
nan 2 2 2 1 1 1 0 -0 0 0 1 1 1 1 1 1 1 1 0 0 0 1 0 0 1 1 1 1 0 0 0 0 0 0 0 0 0 0 0 0 0 0 0 1 1 1 0 -0 0 0 0 0 0 -0 -0 -0 -0 -0 0 0 0 0 0 0 0 1 1 nan
nan 2 2 1 1 1 1 0 0 1 1 1 1 1 1 1 1 1 1 1 1 1 1 1 1 1 1 1 0 0 -0 -0 0 0 0 0 0 0 0 0 0 0 0 0 1 1 1 0 -0 0 0 0 0 0 0 0 -0 -0 0 0 0 0 0 0 0 0 0 0 nan
nan nan nan nan nan nan nan nan nan nan nan nan nan nan nan nan nan nan nan nan nan nan nan nan nan nan nan nan nan nan nan nan nan nan nan nan nan nan nan nan nan nan nan nan nan nan nan nan nan nan nan nan nan nan nan nan nan nan nan nan nan nan nan nan nan nan nan nan nan
Wind_Speed
7 8 9 10 12 12 12 12 11 11 10 9 9 8 8 7 7 7 8 9 9 9 10 11 11 11 10 10 9 8 8 9 11 12 13 15 16 17 18 18 19 19 19 19 19 19 20 21 21 22 22 22 21 20 19 18 17 17 17 17 17 18 18 18 17 17 17 17 18
7 8 8 9 11 12 13 13 12 12 11 10 10 10 10 9 9 9 9 9 9 10 10 11 11 11 11 11 10 10 10 10 11 12 13 14 16 17 18 19 20 20 21 21 20 21 21 21 22 23 23 23 23 22 21 20 19 19 19 19 20 20 20 20 20 19 19 19 18
8 8 9 10 11 12 13 14 13 13 12 11 12 12 12 12 11 11 10 9 9 9 10 10 10 11 11 11 11 11 11 11 11 12 13 14 15 17 18 20 21 22 22 22 22 23 23 23 24 24 25 25 25 25 24 23 22 22 22 22 22 22 22 22 21 21 21 20 20
8 9 10 11 12 12 13 14 15 14 13 12 13 13 13 13 12 11 11 10 10 9 9 10 10 11 11 11 12 12 12 13 13 13 13 13 14 16 17 19 20 22 23 23 24 24 24 25 25 26 27 27 27 27 27 26 25 25 25 25 24 23 23 23 22 22 22 22 22
7 9 11 12 13 13 14 14 15 15 15 14 13 13 13 13 12 12 11 11 11 11 11 11 11 11 11 12 12 12 13 13 13 14 14 14 14 15 16 17 19 21 22 23 24 24 25 25 26 27 28 29 29 29 29 29 28 27 27 26 26 25 24 23 23 23 23 22 22
7 9 10 12 13 13 14 14 15 16 16 16 15 14 14 13 12 12 11 11 12 12 12 12 12 12 12 12 12 12 13 13 14 14 15 15 15 15 15 16 17 19 20 22 23 24 24 25 25 26 27 29 29 30 30 30 29 29 27 26 26 25 24 24 24 24 23 23 22
7 8 10 12 13 14 14 14 15 16 17 17 17 16 14 13 12 11 11 11 11 12 12 13 13 12 12 12 12 13 13 14 14 15 15 16 16 16 16 16 16 17 19 20 21 22 23 23 24 25 26 27 27 28 28 28 28 28 26 25 25 25 24 24 25 24 24 24 23
6 8 10 11 13 14 15 15 16 16 17 18 18 18 16 15 14 13 12 12 11 12 12 13 13 13 13 13 13 13 13 14 14 15 15 16 16 16 16 16 16 17 18 19 20 21 22 22 23 24 24 25 25 25 25 25 25 25 25 24 24 24 25 25 25 25 25 25 24
6 8 9 11 12 14 15 16 16 17 18 18 19 18 18 18 17 16 15 14 13 13 13 13 13 14 14 14 13 13 14 14 14 15 15 16 16 17 17 17 17 17 18 18 19 20 20 21 22 22 23 23 23 23 23 23 23 23 23 23 23 24 24 25 25 25 25 25 25
6 7 9 10 12 14 15 16 17 17 18 19 19 19 19 19 18 17 16 16 15 14 14 14 13 14 14 14 14 13 14 14 14 15 15 16 16 17 17 17 17 18 18 19 19 19 20 20 21 21 21 22 22 21 21 21 21 21 21 22 23 23 24 24 24 24 24 25 25
6 7 8 10 11 13 15 16 17 18 18 19 19 19 19 18 18 17 17 16 16 16 16 15 14 13 14 14 14 13 14 14 14 15 15 16 16 16 17 17 17 18 18 19 19 19 20 20 20 21 21 21 21 21 20 20 20 20 20 21 21 22 22 23 23 23 23 24 25
7 7 8 9 10 12 14 16 17 19 19 20 20 19 19 19 18 17 17 17 18 18 17 15 14 14 14 14 14 14 14 14 14 15 15 15 16 16 17 17 17 17 18 18 19 19 19 20 20 20 21 21 21 21 20 20 20 19 19 20 20 21 21 22 22 22 23 23 24
7 7 8 8 9 11 13 15 17 18 19 20 20 20 20 19 18 18 18 18 18 18 17 16 15 15 14 14 14 14 14 14 14 15 15 15 15 16 16 16 17 17 17 17 18 19 19 20 20 21 21 21 21 21 21 21 20 19 19 19 20 20 21 21 21 22 22 22 23
8 8 8 8 9 10 11 13 15 16 18 19 20 20 20 20 19 19 19 19 18 18 17 16 16 15 15 14 14 14 14 14 14 15 15 15 15 15 16 16 16 16 17 17 17 18 19 19 20 20 21 21 22 22 22 22 21 20 20 20 20 20 21 21 21 21 21 22 23
9 9 9 9 9 10 10 12 13 14 16 18 18 19 19 20 20 19 19 19 18 18 17 16 16 16 15 15 14 14 14 14 15 15 15 15 15 15 15 15 16 16 17 17 17 18 18 19 19 20 21 21 22 23 23 23 23 22 21 21 21 21 21 21 21 21 21 21 22
10 10 10 10 9 10 10 11 12 13 15 16 17 18 19 19 19 19 19 19 18 18 17 17 16 16 15 15 15 15 15 15 15 15 15 15 15 14 15 15 15 16 17 17 17 18 18 19 19 20 20 21 22 22 23 24 24 23 23 23 23 22 22 22 21 21 20 21 22
11 11 11 10 10 10 11 11 12 13 14 15 17 17 18 19 19 19 19 19 18 18 18 17 16 16 16 16 16 15 15 15 15 15 15 15 14 14 14 15 15 16 16 17 18 18 19 19 19 20 20 20 21 22 23 23 24 24 24 24 24 24 23 22 22 21 21 21 22
11 11 11 11 11 11 11 11 12 13 14 15 16 17 18 18 18 18 18 18 18 18 18 17 17 17 17 17 16 16 15 15 15 15 15 15 15 15 15 15 15 15 16 17 17 18 18 19 19 20 20 20 21 21 22 23 23 24 24 24 24 24 23 23 22 22 22 22 22
12 12 12 12 12 11 11 11 12 13 14 15 16 17 18 18 18 18 18 18 18 18 18 18 17 17 17 17 17 16 16 16 15 15 15 15 15 15 15 15 15 15 16 16 17 17 18 19 19 19 20 20 20 21 21 22 23 23 24 24 24 23 23 22 22 22 22 22 22
12 13 13 13 12 12 12 12 12 13 14 15 16 17 18 18 18 18 18 18 18 18 18 18 18 18 18 18 17 17 17 17 16 16 15 15 15 15 15 15 15 15 16 16 16 17 17 18 19 19 19 19 20 20 21 21 22 23 23 23 23 23 23 22 22 22 22 22 23
13 13 13 13 13 13 12 12 12 13 13 14 15 17 18 18 19 19 18 18 18 18 18 18 18 18 18 18 18 18 18 17 17 17 16 16 16 16 16 15 15 16 16 16 16 16 17 17 18 18 18 18 19 19 20 21 21 22 22 22 22 22 22 22 22 22 22 22 23
13 13 14 14 14 14 13 13 13 13 13 14 15 16 17 18 19 19 19 19 18 18 18 18 19 19 19 19 19 18 18 18 18 18 17 17 17 16 16 16 16 16 16 15 15 16 16 17 17 17 17 17 18 18 19 19 20 21 21 21 21 21 22 22 22 22 22 22 23
14 14 14 15 15 15 14 14 13 13 13 14 15 15 16 17 18 19 19 19 18 18 18 18 18 19 19 19 19 18 18 18 18 18 18 17 17 17 17 17 16 16 16 15 15 15 16 16 16 17 17 17 17 17 18 18 19 19 20 20 20 20 21 21 22 22 22 22 23
15 15 15 16 16 16 15 15 14 14 14 14 15 15 16 17 17 18 19 19 18 18 18 18 18 18 18 18 18 18 18 18 18 18 18 18 17 17 17 17 17 16 16 16 16 16 16 16 16 16 16 16 16 17 17 18 18 18 18 18 19 19 20 20 21 21 22 22 22
16 16 17 17 17 17 16 16 15 14 14 14 15 15 16 16 17 17 18 18 18 18 17 17 17 17 17 17 17 17 17 17 17 17 17 17 17 17 17 17 17 16 16 16 16 17 17 16 16 16 16 16 16 16 17 17 17 17 17 18 18 18 19 19 20 21 21 22 22
18 18 18 18 18 17 17 16 16 15 15 15 15 15 16 16 16 17 17 18 18 17 17 16 16 16 16 16 16 16 16 17 17 17 17 17 17 17 17 16 16 16 16 16 16 16 16 16 17 17 17 17 17 17 17 17 17 17 17 17 17 18 19 19 19 20 20 21 22
19 19 19 19 19 18 18 17 16 16 16 16 16 16 16 16 16 17 17 17 17 17 16 16 15 15 15 15 15 15 15 16 16 16 16 16 16 16 16 16 16 16 16 16 16 16 16 16 17 17 17 17 17 17 17 17 17 17 17 17 17 18 18 19 19 19 20 20 21
21 20 20 20 20 19 19 18 18 17 17 17 16 16 16 17 17 17 17 17 17 17 16 16 15 15 15 14 14 15 15 15 15 16 16 16 16 16 15 15 15 15 15 15 15 15 15 16 16 17 17 17 17 17 17 17 17 17 17 18 18 18 19 19 19 19 19 19 19
22 21 21 21 20 20 20 19 19 18 18 17 17 17 17 17 17 17 17 17 17 17 16 16 15 15 15 14 14 14 15 15 15 15 15 15 15 15 15 14 14 14 14 14 14 14 15 15 16 16 16 17 17 17 17 17 18 18 18 18 19 19 19 19 19 19 18 18 18
24 23 22 22 21 21 21 20 19 19 18 18 18 18 18 18 18 18 18 17 17 17 17 16 16 15 15 15 15 15 15 15 15 15 15 14 14 14 14 14 13 13 13 13 13 13 13 14 15 15 16 16 16 17 17 17 18 18 19 19 19 19 20 19 19 19 18 18 17
26 25 24 23 22 22 21 21 20 19 19 19 19 19 19 19 18 18 18 18 17 17 17 17 16 16 16 16 15 15 15 15 15 15 14 14 14 14 13 13 13 13 13 13 12 12 12 13 14 14 14 15 16 16 16 17 17 18 18 19 19 19 20 19 19 18 18 17 17
27 26 25 24 23 23 22 21 21 21 20 20 20 20 19 19 19 18 18 18 18 18 18 17 17 17 16 16 16 15 15 15 15 14 14 14 14 14 13 13 13 13 13 12 12 12 12 13 13 13 13 14 15 15 16 16 17 17 18 18 19 19 19 19 19 18 18 17 17
29 28 27 26 25 23 23 22 22 22 22 21 21 20 20 19 19 19 18 18 18 18 18 18 17 17 17 17 16 16 16 16 15 15 15 14 14 14 13 13 13 13 13 12 12 11 11 12 12 12 12 13 14 15 15 16 16 17 18 18 18 19 19 19 19 18 18 17 17
31 30 28 27 26 24 24 23 23 23 23 22 22 21 21 20 20 19 19 19 19 18 18 18 17 17 17 17 17 17 17 16 16 16 15 15 14 14 13 13 13 13 13 13 12 11 11 12 12 12 12 12 13 14 14 15 16 17 18 18 18 18 18 18 18 18 18 17 17
32 31 30 28 27 26 25 24 24 24 24 24 23 22 21 21 20 20 20 19 19 18 18 18 18 18 18 18 18 18 17 17 16 16 16 15 15 14 14 14 14 13 13 13 12 12 12 12 12 12 11 12 12 13 14 15 16 17 18 18 18 18 18 18 18 18 18 17 17
33 32 31 29 28 27 25 25 25 25 25 24 24 23 22 21 21 20 20 20 19 19 19 18 18 18 19 19 18 18 18 17 17 17 16 16 15 15 14 14 14 14 14 13 13 12 12 13 13 12 11 11 12 13 13 15 16 17 18 18 18 19 18 18 18 18 18 18 18
33 32 31 30 29 27 26 26 25 25 25 25 24 23 22 21 21 21 20 20 20 20 19 19 19 19 19 18 18 18 17 17 17 17 17 16 16 15 15 15 15 15 14 14 13 13 13 14 13 12 11 11 12 12 13 14 15 16 17 18 18 18 18 18 18 18 18 18 18
33 32 32 31 29 28 27 26 26 26 26 25 24 23 22 22 21 21 21 21 21 20 19 19 19 19 18 18 17 17 17 17 17 17 17 17 16 16 15 15 15 15 15 14 13 13 14 14 14 13 12 12 12 12 13 14 15 16 16 17 17 18 18 18 18 18 19 19 19
32 32 32 31 30 29 27 27 26 26 26 25 24 24 23 22 22 22 21 21 21 20 20 19 19 18 18 18 17 18 18 18 18 17 17 17 16 16 16 16 16 16 16 15 14 14 14 14 15 14 13 12 12 12 13 14 14 15 15 16 16 17 17 18 18 19 19 19 20
31 32 32 31 30 29 28 27 26 26 25 25 25 24 23 23 22 22 21 21 21 20 20 19 19 19 18 18 18 18 18 18 18 17 17 17 17 17 17 17 17 17 17 16 15 15 15 15 16 15 14 13 13 13 13 14 15 15 15 15 15 16 17 17 18 19 19 20 21
30 31 31 31 31 30 29 28 27 26 25 25 25 24 23 22 22 22 22 22 21 21 20 20 19 19 19 19 19 19 19 18 18 17 17 17 17 17 17 17 18 18 17 17 16 16 16 16 17 17 16 14 14 14 14 15 15 15 15 15 15 16 16 17 18 18 19 20 21
Wind_Direction
228 225 219 209 199 192 185 180 180 185 193 201 202 199 197 199 205 206 204 205 210 218 227 234 239 241 240 238 234 231 229 229 230 231 232 231 230 229 227 224 221 218 216 215 215 216 217 219 222 225 229 231 233 234 234 232 232 232 232 231 231 232 234 236 238 237 234 229 224
227 227 225 220 212 204 196 189 188 192 197 203 204 202 201 202 207 209 209 208 209 214 220 228 233 236 236 236 234 233 232 232 232 233 234 235 235 235 233 231 229 225 222 219 217 217 219 221 224 227 230 232 233 236 237 236 236 238 240 240 239 239 240 243 244 244 241 235 228
226 228 228 227 223 217 210 203 199 200 205 209 209 207 207 208 210 213 215 216 216 216 218 222 227 230 231 232 234 234 235 234 234 233 233 235 236 238 238 238 237 234 230 226 222 220 220 222 224 226 229 231 233 235 236 237 237 240 243 245 243 243 244 245 245 243 240 235 229
223 226 228 230 231 229 222 214 210 210 214 217 218 217 216 216 217 220 222 224 225 225 224 224 226 227 228 230 232 233 234 234 234 233 233 234 235 237 239 240 241 240 239 235 231 227 225 224 225 226 227 228 230 232 234 236 237 239 242 243 243 244 244 243 241 239 235 231 227
221 224 228 231 234 235 232 225 219 218 220 224 227 227 226 226 227 230 232 234 236 236 235 232 230 229 228 229 230 231 232 232 232 232 232 232 233 234 236 239 241 242 243 242 239 236 233 230 228 227 227 227 228 229 231 233 235 237 239 239 241 241 241 239 236 234 231 228 226
221 222 226 229 233 235 235 231 226 224 224 227 230 232 233 234 236 239 242 242 243 243 242 240 237 234 232 230 230 230 229 229 229 229 230 231 231 232 233 235 238 240 242 243 242 241 238 235 232 230 228 227 227 228 229 231 233 235 236 237 238 238 237 235 233 231 229 227 225
224 223 224 226 229 231 232 232 230 229 228 229 232 234 237 241 245 248 250 250 250 249 248 246 245 241 238 234 232 230 229 228 228 228 229 229 230 231 232 233 235 238 239 240 241 241 239 237 234 231 228 227 227 227 228 230 231 233 233 234 234 233 232 231 230 229 227 226 225
228 225 224 225 226 227 228 230 230 231 232 233 235 238 242 247 251 254 256 257 257 256 255 253 250 247 243 239 236 232 230 228 228 228 228 229 230 230 231 232 234 236 237 239 239 239 238 236 234 231 228 226 225 226 227 228 229 229 230 229 229 229 229 228 228 227 226 226 225
231 227 226 225 225 226 226 228 229 231 234 236 239 242 246 250 253 255 257 259 260 260 260 259 255 251 248 244 240 236 232 230 228 228 228 228 229 229 230 231 232 234 235 237 237 237 236 235 233 230 228 225 224 224 224 225 226 226 226 226 226 226 226 226 226 225 224 224 224
237 231 228 226 226 226 227 227 229 232 235 238 241 245 248 251 253 255 256 257 258 260 262 261 259 255 252 248 244 239 235 231 228 227 227 227 227 228 228 229 230 231 232 233 234 234 233 232 231 229 227 225 223 222 222 222 222 223 224 224 224 224 224 224 223 222 222 222 223
242 237 232 230 229 229 228 229 230 232 235 238 242 245 249 251 253 254 255 255 258 260 262 262 261 258 254 251 248 243 237 233 229 227 226 225 225 225 225 226 227 227 228 229 229 229 229 229 229 227 226 225 222 220 219 219 219 220 222 223 223 223 222 221 220 219 219 219 220
244 240 237 235 234 232 231 230 231 233 235 238 241 245 248 251 252 254 255 256 258 260 262 263 262 259 256 253 250 246 241 235 231 227 225 224 222 222 222 223 224 224 225 225 225 225 225 226 226 226 225 225 223 221 219 218 217 218 220 222 222 222 221 220 219 217 217 217 217
243 242 240 238 237 236 234 234 234 234 236 238 240 243 246 249 251 253 255 257 258 260 261 262 261 259 257 255 253 249 245 239 233 229 226 223 221 220 221 222 222 223 223 223 223 222 222 223 224 224 225 225 224 223 221 219 217 217 219 221 222 222 221 220 218 216 215 215 215
241 241 241 239 239 239 239 239 238 237 237 238 240 242 245 248 250 252 254 256 258 259 260 260 260 260 259 257 254 251 247 242 236 230 226 223 221 220 221 221 222 223 223 223 223 222 222 222 223 224 225 226 226 226 224 222 220 219 220 221 223 223 223 221 219 216 215 213 214
238 240 240 239 239 241 243 244 243 241 240 240 240 241 243 246 248 250 252 254 255 256 257 257 258 259 260 258 255 251 247 243 237 231 227 224 222 222 222 223 224 225 226 226 226 225 224 224 225 226 227 228 228 228 228 226 224 222 222 222 224 224 224 223 221 218 215 213 212
235 238 238 237 237 239 241 244 246 245 243 242 241 241 241 242 244 246 248 250 251 252 253 254 256 258 258 257 254 250 246 242 236 232 228 225 224 224 224 225 226 227 228 229 229 229 228 228 228 229 230 231 231 231 231 230 228 227 225 224 224 224 224 224 223 220 217 214 212
233 236 237 237 236 236 237 241 243 245 245 244 242 241 240 240 241 242 244 246 247 248 249 251 253 255 256 255 253 249 245 241 236 232 229 227 227 226 226 226 227 228 229 230 231 231 231 231 231 231 232 233 234 233 233 232 231 230 229 228 227 226 225 224 224 222 219 215 212
233 235 237 237 236 235 234 236 239 241 243 244 243 241 239 238 238 239 240 242 244 245 246 247 249 251 253 253 252 250 246 242 238 234 232 231 230 230 229 228 228 228 229 230 231 232 232 232 233 233 234 234 235 234 234 233 232 232 231 231 230 228 227 225 224 223 220 217 215
233 234 236 237 237 235 233 233 234 236 239 241 242 242 240 238 237 237 238 239 241 243 244 245 246 247 248 249 250 249 248 245 242 239 237 236 236 235 233 232 231 230 230 230 231 232 232 233 233 234 235 235 235 235 234 234 233 232 232 232 231 230 228 226 224 223 221 219 217
235 235 236 237 238 236 234 231 231 232 235 238 240 241 241 239 238 237 237 238 240 241 243 244 244 245 246 246 247 247 248 247 246 244 243 242 241 240 238 236 235 234 233 231 231 231 231 232 233 234 235 236 236 236 235 234 234 233 233 232 232 230 228 225 224 222 221 220 219
238 236 236 236 237 237 235 233 230 230 232 234 237 239 240 240 239 238 238 238 239 240 242 243 244 244 244 245 245 245 246 247 247 247 246 246 246 245 243 241 240 238 236 234 232 231 231 231 233 234 235 236 237 237 236 235 234 234 233 233 231 229 227 224 222 221 220 219 220
240 238 236 235 236 236 236 234 232 231 231 232 235 237 239 240 240 239 239 239 239 240 241 243 243 244 244 244 244 244 245 246 246 247 247 247 247 247 246 245 243 241 239 237 234 233 232 231 232 233 235 236 237 237 237 236 235 234 234 233 231 228 225 223 221 220 219 219 220
240 239 237 235 235 235 235 235 233 232 231 231 233 235 237 239 239 239 239 239 240 240 242 243 243 244 244 244 244 244 244 244 245 245 246 246 247 247 246 245 244 242 240 238 237 235 233 232 232 233 234 234 235 235 236 235 235 234 233 232 230 227 224 222 221 220 220 220 222
240 239 238 237 236 235 235 235 234 233 232 231 232 233 235 237 238 238 239 239 240 240 241 242 243 244 244 244 244 244 244 244 243 243 244 244 244 244 245 244 243 242 240 239 238 237 235 234 233 233 233 233 232 232 233 233 233 233 232 230 228 225 223 222 223 223 223 224 226
240 240 239 238 237 236 235 235 234 233 232 231 231 232 233 235 236 237 237 238 238 239 240 240 241 242 243 243 243 243 242 242 243 242 242 242 242 242 242 242 242 241 240 239 238 237 236 235 234 234 233 232 230 229 229 229 229 229 229 228 227 225 224 225 226 228 230 231 232
239 240 239 239 238 237 236 235 233 232 231 230 230 231 232 233 234 235 235 236 237 237 237 238 238 239 239 240 240 240 241 241 241 241 241 240 240 241 241 241 240 240 240 238 237 236 235 235 234 233 232 230 228 227 226 225 225 225 226 226 226 226 226 227 229 232 235 236 237
239 240 240 240 239 238 236 235 233 231 230 229 229 229 230 231 232 233 233 233 234 235 235 235 235 235 236 237 237 238 238 239 239 239 239 239 239 239 240 240 240 240 239 238 236 235 234 233 232 231 230 229 227 225 224 223 222 222 222 223 225 226 227 228 230 233 236 237 238
239 240 240 240 239 238 237 235 232 230 229 228 228 228 229 230 230 231 231 232 232 232 233 233 233 233 234 235 235 236 236 237 238 238 238 238 238 238 239 239 239 239 239 237 236 234 232 231 230 229 229 228 227 226 225 223 221 220 220 221 222 224 226 227 229 231 232 234 235
238 239 240 240 240 239 237 235 233 231 229 228 227 227 228 228 229 229 229 230 230 230 230 231 231 232 232 233 234 235 235 236 237 236 237 237 237 237 238 238 239 238 238 236 235 233 231 230 228 228 227 227 227 227 226 224 222 220 220 220 221 222 223 224 225 225 227 228 228
237 238 239 240 240 239 238 236 234 232 230 229 227 227 227 228 228 228 228 228 228 227 228 229 230 230 231 231 233 234 235 236 237 236 236 235 235 236 236 237 237 237 236 235 233 231 229 228 227 226 226 227 227 227 226 225 223 221 220 220 220 220 220 219 219 219 219 220 221
236 237 238 239 239 239 238 236 234 233 231 230 228 227 227 227 228 228 228 227 226 226 226 227 228 229 230 231 232 233 234 236 236 236 235 235 234 235 235 236 236 235 234 232 231 228 227 227 226 225 225 226 226 226 225 224 223 221 219 218 217 216 215 215 214 213 213 214 214
235 236 237 238 239 238 237 235 233 232 231 231 230 228 227 227 228 228 228 226 225 224 224 225 226 227 229 230 231 232 234 235 236 236 235 234 234 233 234 235 235 234 232 230 227 224 224 227 227 225 224 224 224 224 223 222 221 219 217 215 213 212 211 210 209 209 208 208 209
234 234 236 237 237 237 236 234 233 232 232 232 231 230 228 228 228 228 227 226 225 224 223 224 225 226 228 229 230 231 232 233 234 235 235 234 233 233 233 234 234 233 230 228 224 221 221 226 227 225 222 222 222 221 220 219 218 217 214 212 210 209 208 207 206 205 204 204 204
233 233 234 235 236 236 235 233 232 232 232 232 231 231 229 228 227 227 227 227 226 225 224 224 224 225 226 228 228 229 231 232 233 234 234 233 233 232 232 232 232 231 229 226 221 217 219 224 226 223 219 219 218 218 217 216 216 214 211 209 207 206 206 205 203 202 201 201 200
232 232 233 234 234 234 234 233 232 232 232 232 232 231 230 228 227 227 227 228 227 226 225 224 223 224 225 227 228 229 230 231 232 232 233 232 232 231 231 230 231 230 229 226 220 216 217 224 225 220 215 214 215 215 214 214 214 212 209 206 205 204 204 203 201 200 199 197 196
231 231 232 232 233 233 233 232 232 232 232 232 232 231 230 229 228 228 228 228 228 226 225 224 223 224 225 227 228 229 230 230 231 231 231 231 230 229 229 229 229 229 229 227 221 216 217 224 223 217 211 210 211 212 213 214 214 212 209 205 203 202 201 200 199 197 196 194 193
231 231 231 232 232 233 233 232 232 232 232 232 232 232 231 229 228 228 228 228 227 227 225 225 224 225 226 228 229 230 230 230 230 230 230 230 229 228 227 227 228 228 228 227 222 218 220 225 222 214 206 206 207 209 212 214 215 213 210 206 203 202 200 198 197 195 194 193 191
232 231 231 231 232 233 233 233 233 233 233 233 233 232 231 230 229 228 228 228 228 227 227 226 226 226 227 228 229 229 230 229 229 229 229 229 228 226 225 225 226 227 227 226 221 218 219 224 220 212 205 202 204 206 210 213 215 215 213 210 206 203 200 198 196 194 192 191 190
233 232 231 231 232 233 233 234 234 234 234 234 233 231 230 229 228 228 229 230 230 229 228 227 227 227 227 227 228 228 229 229 229 229 229 228 227 226 224 223 224 225 225 224 219 214 215 220 219 213 206 203 202 205 208 211 214 215 214 212 209 206 202 199 196 193 191 190 189
235 233 232 231 232 233 234 235 235 235 235 234 232 231 230 229 228 228 229 229 230 229 229 228 227 226 226 226 226 227 228 229 229 229 228 228 227 226 224 223 223 223 223 221 216 210 210 215 219 215 209 205 204 205 207 209 212 213 213 212 210 207 204 201 198 194 191 190 188
236 234 232 232 232 233 234 235 236 236 235 233 232 231 230 229 228 228 228 228 228 228 228 227 226 225 225 225 225 226 227 228 229 229 228 228 227 226 224 222 221 222 221 219 214 209 207 212 220 219 214 210 209 208 208 209 210 210 210 210 209 207 204 202 199 196 193 191 189
Height
1468 1469 1469 1469 1469 1470 1470 1470 1471 1471 1472 1472 1473 1473 1473 1473 1473 1473 1473 1473 1474 1474 1475 1475 1476 1477 1477 1477 1478 1478 1478 1478 1478 1479 1479 1479 1480 1480 1480 1481 1481 1481 1481 1482 1482 1483 1483 1484 1485 1486 1487 1488 1488 1489 1490 1490 1491 1491 1492 1492 1493 1493 1494 1495 1495 1496 1497 1498 1500
1468 1468 1468 1468 1469 1469 1470 1470 1470 1470 1471 1471 1472 1472 1472 1472 1472 1473 1473 1473 1473 1474 1474 1475 1475 1476 1477 1477 1477 1477 1478 1478 1478 1478 1479 1479 1479 1479 1480 1480 1480 1481 1481 1481 1481 1482 1482 1483 1484 1485 1485 1486 1487 1487 1488 1489 1489 1490 1490 1491 1491 1492 1493 1493 1494 1495 1496 1497 1499
1467 1468 1468 1468 1468 1468 1469 1469 1470 1470 1470 1470 1471 1471 1471 1471 1472 1472 1472 1473 1473 1473 1474 1474 1475 1475 1475 1476 1476 1477 1477 1477 1478 1478 1478 1478 1478 1479 1479 1479 1480 1480 1480 1480 1481 1481 1482 1483 1483 1484 1485 1485 1485 1486 1486 1487 1488 1488 1489 1489 1490 1491 1491 1492 1493 1494 1495 1496 1497
1467 1467 1467 1467 1467 1468 1468 1469 1469 1470 1470 1470 1470 1470 1471 1471 1471 1472 1472 1473 1473 1473 1473 1473 1474 1474 1475 1475 1475 1476 1476 1477 1477 1477 1477 1478 1478 1478 1478 1479 1479 1479 1479 1480 1480 1481 1481 1482 1483 1484 1484 1485 1485 1485 1485 1486 1486 1487 1487 1488 1489 1490 1490 1491 1492 1492 1493 1495 1496
1466 1467 1467 1467 1467 1467 1467 1468 1468 1469 1469 1470 1470 1470 1470 1471 1471 1472 1472 1473 1473 1473 1473 1473 1473 1473 1473 1474 1474 1475 1475 1476 1476 1476 1477 1477 1477 1477 1478 1478 1478 1478 1479 1479 1479 1480 1480 1481 1482 1483 1483 1484 1484 1484 1485 1485 1485 1486 1486 1487 1487 1488 1489 1490 1490 1491 1492 1493 1495
1466 1466 1466 1466 1467 1467 1467 1467 1468 1468 1468 1469 1469 1470 1470 1470 1471 1471 1472 1472 1472 1473 1473 1473 1473 1473 1473 1473 1473 1474 1474 1475 1475 1475 1475 1476 1476 1476 1477 1477 1477 1478 1478 1478 1478 1479 1480 1480 1481 1481 1482 1482 1483 1483 1484 1484 1484 1485 1485 1485 1486 1487 1488 1489 1489 1490 1491 1492 1493
1465 1466 1466 1466 1466 1466 1466 1467 1467 1467 1468 1468 1468 1469 1469 1470 1470 1470 1471 1471 1472 1472 1472 1472 1472 1472 1472 1472 1473 1473 1473 1473 1474 1474 1475 1475 1475 1475 1476 1476 1476 1477 1477 1477 1477 1478 1478 1479 1480 1480 1480 1481 1482 1482 1483 1483 1483 1484 1484 1485 1485 1486 1487 1487 1488 1489 1490 1490 1492
1465 1465 1465 1465 1465 1466 1466 1466 1466 1466 1467 1467 1467 1468 1468 1469 1469 1469 1470 1470 1470 1471 1471 1472 1472 1472 1472 1472 1472 1472 1472 1473 1473 1473 1474 1474 1474 1474 1475 1475 1475 1475 1475 1476 1476 1477 1477 1478 1478 1479 1479 1480 1480 1481 1481 1481 1482 1482 1483 1483 1484 1485 1485 1486 1487 1487 1488 1489 1490
1464 1464 1465 1465 1465 1465 1465 1465 1466 1466 1466 1466 1466 1467 1467 1467 1467 1468 1469 1469 1470 1470 1470 1471 1471 1471 1471 1471 1471 1472 1472 1472 1472 1472 1473 1473 1473 1473 1473 1474 1474 1474 1475 1475 1475 1475 1476 1477 1477 1478 1478 1479 1479 1479 1480 1480 1480 1481 1481 1482 1482 1483 1484 1485 1485 1486 1487 1487 1488
1464 1464 1464 1464 1464 1465 1465 1465 1465 1465 1465 1465 1466 1466 1466 1466 1466 1467 1467 1468 1468 1469 1470 1470 1470 1470 1471 1471 1471 1471 1471 1472 1472 1472 1472 1472 1472 1472 1473 1473 1473 1473 1473 1474 1474 1474 1475 1475 1476 1476 1477 1477 1478 1478 1478 1479 1479 1480 1480 1480 1481 1481 1482 1483 1483 1484 1485 1486 1487
1463 1463 1463 1463 1463 1464 1464 1464 1465 1465 1465 1465 1465 1465 1465 1465 1465 1466 1466 1467 1467 1468 1468 1469 1469 1470 1470 1470 1470 1470 1471 1471 1471 1471 1471 1471 1472 1472 1472 1472 1472 1472 1472 1472 1473 1473 1474 1474 1475 1475 1476 1476 1477 1477 1477 1477 1478 1478 1479 1479 1480 1480 1480 1481 1481 1482 1483 1484 1485
1462 1462 1462 1462 1463 1463 1463 1463 1464 1464 1464 1464 1464 1464 1465 1465 1465 1465 1465 1465 1466 1466 1467 1468 1468 1469 1469 1469 1470 1470 1470 1470 1470 1470 1471 1471 1471 1471 1471 1471 1471 1471 1471 1471 1472 1472 1472 1473 1474 1474 1475 1475 1475 1476 1476 1476 1476 1477 1478 1478 1478 1478 1479 1479 1480 1480 1481 1482 1483
1462 1462 1461 1462 1462 1462 1462 1462 1463 1463 1463 1463 1464 1464 1464 1464 1464 1464 1464 1464 1465 1465 1466 1466 1467 1467 1468 1468 1469 1469 1469 1469 1470 1470 1470 1470 1470 1470 1470 1470 1470 1470 1470 1470 1471 1471 1471 1472 1472 1473 1474 1474 1475 1475 1475 1475 1475 1476 1476 1477 1477 1477 1477 1478 1478 1479 1480 1480 1481
1461 1461 1461 1461 1461 1461 1461 1461 1462 1462 1462 1463 1463 1463 1463 1463 1463 1463 1463 1463 1464 1464 1465 1465 1465 1466 1466 1467 1467 1468 1468 1468 1469 1469 1469 1469 1470 1470 1470 1470 1470 1470 1470 1470 1470 1470 1470 1471 1471 1472 1472 1473 1473 1474 1474 1474 1474 1475 1475 1475 1476 1476 1476 1477 1477 1478 1478 1479 1479
1460 1460 1460 1460 1460 1460 1460 1460 1460 1461 1461 1462 1462 1462 1462 1462 1463 1462 1462 1462 1463 1463 1463 1464 1464 1465 1465 1466 1466 1467 1467 1467 1467 1468 1468 1468 1469 1469 1469 1469 1469 1470 1470 1470 1470 1470 1470 1470 1470 1471 1471 1472 1472 1472 1473 1473 1473 1473 1474 1474 1474 1475 1475 1476 1476 1477 1477 1477 1478
1460 1460 1460 1460 1460 1460 1460 1460 1460 1460 1460 1460 1461 1461 1461 1462 1462 1462 1462 1462 1462 1462 1462 1462 1463 1463 1464 1465 1465 1465 1466 1466 1466 1467 1467 1467 1467 1468 1468 1468 1468 1469 1469 1469 1469 1469 1469 1470 1470 1470 1470 1471 1471 1471 1471 1472 1472 1472 1472 1473 1473 1473 1474 1475 1475 1475 1476 1476 1477
1459 1459 1459 1459 1459 1459 1459 1459 1459 1459 1460 1460 1460 1460 1460 1461 1461 1461 1461 1461 1461 1461 1461 1461 1462 1462 1463 1463 1464 1464 1465 1465 1465 1465 1466 1466 1466 1466 1467 1467 1467 1468 1468 1468 1468 1468 1469 1469 1469 1469 1470 1470 1470 1470 1470 1470 1470 1471 1471 1471 1472 1472 1473 1473 1474 1475 1475 1475 1476
1458 1458 1458 1458 1458 1458 1458 1458 1459 1459 1459 1459 1459 1459 1460 1460 1460 1460 1460 1461 1461 1461 1460 1461 1461 1461 1462 1462 1462 1463 1463 1464 1464 1465 1465 1465 1465 1465 1465 1465 1466 1466 1467 1467 1467 1467 1467 1468 1468 1468 1468 1468 1469 1469 1469 1469 1469 1470 1470 1470 1470 1471 1471 1472 1473 1473 1474 1474 1475
1457 1457 1457 1457 1457 1457 1458 1458 1458 1458 1458 1458 1458 1459 1459 1459 1459 1460 1460 1460 1460 1460 1460 1460 1460 1460 1461 1461 1461 1462 1462 1463 1463 1463 1464 1464 1464 1464 1464 1464 1465 1465 1465 1465 1466 1466 1466 1466 1467 1467 1467 1467 1467 1467 1467 1467 1468 1468 1468 1469 1469 1470 1470 1471 1471 1472 1473 1473 1474
1455 1456 1456 1456 1456 1456 1456 1457 1457 1457 1457 1457 1458 1458 1458 1458 1458 1459 1459 1459 1459 1460 1460 1460 1460 1460 1460 1460 1460 1461 1461 1461 1462 1462 1462 1463 1463 1463 1463 1463 1463 1463 1464 1464 1465 1465 1465 1465 1465 1465 1465 1466 1466 1466 1466 1466 1466 1466 1467 1467 1467 1468 1469 1469 1470 1471 1471 1472 1472
1454 1455 1455 1455 1455 1455 1455 1456 1456 1456 1456 1457 1457 1457 1457 1457 1457 1458 1458 1458 1459 1459 1459 1459 1459 1459 1459 1460 1460 1460 1460 1460 1461 1461 1461 1461 1461 1461 1462 1462 1462 1462 1462 1462 1463 1463 1464 1464 1464 1464 1464 1464 1465 1465 1465 1465 1465 1465 1465 1466 1466 1467 1467 1468 1469 1469 1470 1470 1470
1453 1453 1454 1454 1454 1454 1454 1455 1455 1455 1455 1455 1456 1456 1456 1456 1456 1457 1457 1457 1458 1458 1458 1459 1459 1459 1459 1459 1459 1459 1460 1460 1460 1460 1460 1460 1460 1460 1460 1460 1460 1460 1461 1461 1461 1461 1462 1462 1462 1463 1463 1463 1463 1463 1463 1463 1464 1464 1464 1465 1465 1465 1466 1467 1467 1468 1468 1469 1469
1451 1452 1452 1452 1453 1453 1453 1453 1454 1454 1454 1455 1455 1455 1455 1455 1456 1456 1456 1456 1457 1457 1457 1458 1458 1458 1458 1458 1458 1458 1459 1459 1459 1459 1459 1460 1460 1460 1460 1460 1460 1460 1460 1460 1460 1460 1460 1461 1461 1461 1462 1462 1462 1462 1462 1462 1462 1463 1463 1464 1464 1464 1465 1465 1466 1466 1467 1467 1467
1450 1450 1450 1451 1451 1451 1452 1452 1452 1453 1453 1453 1454 1454 1454 1455 1455 1455 1455 1455 1456 1456 1456 1456 1457 1457 1457 1457 1457 1458 1458 1458 1458 1458 1458 1459 1459 1459 1459 1459 1459 1459 1459 1459 1459 1459 1459 1459 1460 1460 1460 1460 1461 1461 1461 1461 1461 1462 1462 1463 1463 1464 1464 1465 1465 1466 1466 1466 1467
1448 1449 1449 1449 1450 1450 1450 1451 1451 1451 1452 1452 1453 1453 1453 1454 1454 1454 1455 1455 1455 1455 1455 1455 1456 1456 1456 1456 1457 1457 1457 1457 1457 1457 1457 1457 1458 1458 1458 1458 1458 1458 1458 1458 1458 1458 1458 1458 1459 1459 1459 1460 1460 1460 1460 1460 1461 1461 1461 1462 1462 1463 1464 1464 1465 1465 1465 1466 1466
1446 1447 1447 1448 1448 1449 1449 1450 1450 1450 1451 1451 1451 1452 1452 1452 1453 1453 1453 1454 1454 1454 1454 1455 1455 1455 1455 1455 1455 1456 1456 1456 1456 1456 1456 1456 1456 1457 1457 1457 1457 1457 1457 1457 1457 1457 1457 1457 1458 1458 1458 1459 1459 1459 1460 1460 1460 1460 1461 1461 1462 1462 1463 1463 1464 1465 1465 1465 1465
1445 1445 1445 1446 1446 1447 1448 1448 1449 1449 1450 1450 1450 1450 1451 1451 1452 1452 1452 1453 1453 1453 1453 1453 1454 1454 1454 1454 1455 1455 1455 1455 1455 1455 1455 1455 1455 1455 1456 1456 1456 1456 1456 1456 1456 1456 1456 1456 1457 1457 1457 1458 1458 1459 1459 1459 1460 1460 1460 1460 1461 1461 1462 1462 1463 1464 1464 1464 1465
1443 1443 1444 1444 1445 1445 1446 1447 1447 1448 1448 1449 1449 1449 1450 1450 1450 1451 1451 1451 1452 1452 1452 1452 1453 1453 1453 1453 1453 1454 1454 1454 1454 1454 1454 1454 1455 1455 1455 1455 1455 1455 1455 1455 1455 1455 1455 1455 1455 1456 1456 1457 1457 1458 1458 1458 1459 1459 1459 1459 1460 1460 1461 1461 1462 1463 1463 1464 1464
1441 1441 1442 1443 1443 1444 1445 1445 1446 1446 1447 1447 1448 1448 1448 1449 1449 1450 1450 1450 1451 1451 1451 1451 1451 1452 1452 1452 1452 1452 1452 1453 1453 1453 1453 1453 1453 1453 1453 1454 1454 1454 1454 1454 1454 1454 1454 1454 1455 1455 1455 1456 1456 1457 1457 1457 1458 1458 1458 1458 1459 1459 1460 1460 1461 1461 1462 1463 1463
1439 1440 1440 1441 1441 1442 1443 1443 1444 1445 1445 1446 1446 1446 1447 1447 1448 1448 1449 1449 1450 1450 1450 1450 1450 1451 1451 1451 1451 1451 1451 1452 1452 1452 1452 1452 1452 1452 1452 1452 1452 1452 1452 1453 1453 1453 1453 1453 1453 1454 1454 1455 1455 1456 1456 1456 1457 1457 1457 1458 1458 1458 1459 1460 1460 1460 1461 1462 1463
1437 1438 1438 1439 1440 1440 1441 1442 1443 1443 1444 1444 1445 1445 1445 1446 1447 1447 1448 1448 1449 1449 1449 1450 1450 1450 1450 1450 1450 1450 1450 1450 1451 1451 1451 1451 1451 1451 1451 1451 1451 1451 1451 1451 1452 1452 1452 1452 1452 1453 1453 1454 1454 1455 1455 1455 1456 1456 1456 1457 1457 1458 1458 1459 1459 1460 1460 1461 1462
1435 1436 1436 1437 1438 1439 1440 1440 1441 1441 1442 1442 1443 1443 1444 1445 1445 1446 1447 1447 1448 1448 1448 1448 1449 1449 1449 1449 1449 1450 1450 1450 1450 1450 1450 1450 1450 1450 1450 1450 1450 1450 1450 1451 1451 1451 1451 1451 1451 1452 1452 1453 1453 1454 1454 1455 1455 1455 1456 1456 1457 1457 1458 1458 1459 1459 1460 1460 1461
1433 1434 1435 1435 1436 1437 1438 1438 1439 1440 1440 1441 1441 1442 1443 1443 1444 1445 1445 1446 1446 1446 1447 1447 1447 1448 1448 1448 1448 1449 1449 1449 1449 1449 1449 1450 1450 1450 1450 1450 1450 1450 1450 1450 1450 1450 1451 1451 1451 1451 1452 1452 1452 1453 1453 1454 1454 1455 1455 1455 1456 1456 1457 1457 1458 1459 1459 1460 1460
1431 1432 1432 1433 1434 1435 1436 1436 1437 1438 1438 1439 1440 1440 1441 1442 1442 1443 1444 1444 1445 1445 1446 1446 1446 1447 1447 1447 1447 1447 1448 1448 1448 1448 1449 1449 1449 1449 1449 1449 1449 1450 1450 1450 1450 1450 1450 1450 1450 1450 1451 1451 1452 1452 1453 1453 1454 1454 1455 1455 1455 1456 1456 1457 1458 1458 1459 1459 1460
1429 1430 1430 1431 1432 1433 1434 1435 1435 1436 1436 1437 1438 1439 1440 1440 1441 1442 1442 1443 1444 1444 1445 1445 1445 1445 1446 1446 1446 1446 1447 1447 1447 1447 1448 1448 1448 1448 1449 1449 1449 1449 1449 1449 1450 1450 1450 1450 1450 1450 1451 1451 1451 1452 1452 1453 1453 1454 1454 1455 1455 1456 1456 1457 1457 1458 1458 1459 1460
1427 1427 1428 1429 1430 1431 1432 1433 1433 1434 1435 1435 1436 1437 1438 1439 1440 1440 1441 1441 1442 1443 1443 1444 1444 1444 1445 1445 1445 1445 1446 1446 1446 1446 1447 1447 1447 1447 1448 1448 1448 1448 1449 1449 1449 1450 1450 1450 1449 1450 1450 1451 1451 1452 1452 1453 1453 1454 1454 1454 1455 1455 1456 1456 1456 1457 1458 1458 1459
1425 1425 1426 1427 1428 1429 1430 1431 1432 1432 1433 1434 1435 1435 1436 1437 1438 1439 1440 1440 1440 1441 1442 1442 1443 1443 1443 1444 1444 1445 1445 1445 1445 1445 1446 1446 1446 1447 1447 1447 1447 1448 1448 1448 1449 1449 1449 1449 1449 1450 1450 1450 1451 1451 1452 1452 1453 1453 1454 1454 1454 1455 1455 1455 1456 1456 1457 1458 1459
1423 1424 1425 1425 1426 1427 1428 1429 1430 1430 1431 1432 1433 1434 1435 1436 1437 1437 1438 1438 1439 1440 1440 1441 1441 1442 1442 1443 1443 1443 1444 1444 1444 1445 1445 1445 1445 1446 1446 1446 1446 1447 1447 1448 1449 1449 1449 1449 1449 1449 1450 1450 1451 1451 1452 1452 1453 1453 1454 1454 1454 1455 1455 1455 1456 1456 1457 1458 1459
1421 1422 1423 1424 1425 1425 1426 1427 1428 1429 1430 1431 1432 1433 1434 1435 1435 1436 1436 1437 1438 1438 1439 1440 1440 1441 1441 1442 1442 1442 1442 1443 1443 1444 1444 1444 1445 1445 1445 1445 1446 1446 1446 1447 1448 1448 1448 1449 1448 1449 1450 1450 1450 1451 1451 1452 1452 1453 1453 1454 1454 1455 1455 1455 1455 1456 1457 1457 1458
1420 1420 1421 1422 1423 1424 1425 1425 1426 1427 1428 1429 1430 1431 1432 1433 1434 1434 1435 1435 1436 1437 1438 1439 1439 1440 1440 1440 1441 1441 1441 1442 1442 1442 1443 1443 1444 1444 1444 1445 1445 1445 1445 1446 1447 1447 1447 1448 1448 1448 1449 1450 1450 1451 1451 1452 1452 1453 1453 1454 1454 1454 1455 1455 1455 1456 1457 1457 1458
1418 1419 1420 1420 1421 1422 1423 1424 1425 1426 1427 1428 1429 1430 1430 1431 1432 1433 1433 1434 1435 1435 1436 1437 1438 1438 1439 1439 1439 1440 1440 1440 1441 1441 1442 1442 1442 1443 1443 1444 1444 1444 1445 1445 1446 1446 1447 1448 1447 1448 1449 1449 1450 1450 1451 1451 1452 1452 1453 1453 1454 1454 1455 1455 1455 1456 1457 1457 1458